Regional Weather Roundup
Issued by NWS

Home | Current Version | Previous Version | Text Only | Print | Product List | Glossary Off
Versions: 1 2 3 4 5 6 7 8 9 10 11 12 13 14 15 16 17 18 19 20 21 22 23 24 25 26 27 28 29 30 31 32 33 34 35 36 37 38 39 40 41 42 43 44 45 46 47 48 49 50

000
ASUS45 KTFX 270304
RWRMT
MONTANA HOURLY WEATHER ROUNDUP
NATIONAL WEATHER SERVICE GREAT FALLS MT
804 PM MST MON JAN 26 2015

NOTE: "FAIR" INDICATES FEW OR NO CLOUDS BELOW 12000 FEET WITH NO
SIGNIFICANT WEATHER AND/OR OBSTRUCTIONS TO VISIBILITY.

* THESE STATIONS ARE NOT UNDER NWS QUALITY CONTROL. THEY DO NOT
   REPORT WEATHER SUCH AS PRECIPITATION OR FOG.

MTZ001>007-043-270400-
WEST OF THE DIVIDE
CITY           SKY/WX    TMP DP  RH WIND       PRES   REMARKS
KALISPELL      PTCLDY    27  27 100 CALM      30.01S
MISSOULA       PTCLDY    34  28  79 CALM      30.06S
BUTTE          CLEAR     34  27  76 SE3       30.12S
MULLAN PASS    CLEAR     45  27  49 W9        30.08S
* ANACONDA     PTCLDY    48  25  41 SW3        N/A
* ESSEX        N/A       32  29  89 S4         N/A
* LINCOLN      N/A       39  27  62 N2G9       N/A
* LOOKOUT PASS N/A       45  29  54 SW1G6      N/A
* POLSON       N/A       46  29  52 SE1        N/A
* RONAN APT    PTCLDY    34  34 100 N/A        N/A
* SEELEY LAKE  N/A       32  26  79 N2G7       N/A
* THOMP F APT  CLEAR     37  26  64 NE3G10     N/A
$$

MTZ008-052>055-270400-
SOUTHWEST MONTANA
CITY           SKY/WX    TMP DP  RH WIND       PRES   REMARKS
BOZEMAN        CLEAR     34  28  79 SE6       30.10R WCI  29
DILLON         CLEAR     45  28  51 S17G22    30.14R
* W YELLOWSTON CLEAR     24  23  96 N/A        N/A
* THREE FORKS  CLEAR     34  32  92 N/A        N/A
* BOULDER HILL N/A       47  24  40 SW8        N/A
* MONIDA PASS  N/A       33  30  89 SE10       N/A   WCI  25
* RAYNOLDS PAS N/A       29  13  51 S9G14      N/A   WCI  21
* WHITEHALL    N/A       44  28  53 SW3G10     N/A
* WISE RIVER   N/A       37  27  67 W5G10      N/A   WCI  33
$$

MTZ009>010-012-014-046-048-049-054-270400-
EAST SLOPES AND CENTRAL MONTANA
CITY           SKY/WX    TMP DP  RH WIND       PRES   REMARKS
CUT BANK       PTCLDY    48  28  46 W8        29.89S
GREAT FALLS    PTCLDY    52  30  43 SW14      29.93R
HELENA         CLEAR     37  30  76 CALM      30.02S
MALMSTROM AFB  PTCLDY    52  30  43 SW17      29.92F
* DEARBORN     N/A       52  31  45 S9G16      N/A
* EAST GLACIER N/A       54  23  30 W23G35     N/A
* MONARCH      N/A       52  20  28 S17        N/A
* PENDROY      N/A       50  26  39 NE3        N/A
* ROGERS PASS  N/A       51  23  33 SE11G19    N/A
* SWEET GRASS  N/A       52  27  38 SW17       N/A
$$

MTZ011-013-016-021-035-040-045-047-050-051-270400-
NORTH CENTRAL MONTANA
CITY           SKY/WX    TMP DP  RH WIND       PRES   REMARKS
HAVRE          CLEAR     39  34  82 W13       29.83F WCI  31
LEWISTOWN      CLEAR     50  28  43 SW22      29.94F
* N BAR RANCH  CLEAR     55  25  31 W9        29.98F
* CHESTER      N/A       42  34  73 SE3        N/A
* DENTON       N/A       48  28  46 SW17       N/A
* GEYSER       N/A       51  24  35 N7         N/A
* JUDITH GAP   N/A       46  26  46 W5         N/A
* LOMA         N/A       49  33  54 W9         N/A
$$

MTZ017>020-022>027-061-062-270400-
NORTHEAST MONTANA
CITY           SKY/WX    TMP DP  RH WIND       PRES   REMARKS
GLASGOW        CLEAR     37  32  82 E9        29.86F WCI  30
GLENDIVE       PTCLDY    37  30  76 SW5       29.91F WCI  33
JORDAN         CLEAR     32  28  85 CALM      29.87F
SIDNEY         PTCLDY    36  30  79 CALM      29.91S
WOLF POINT     PTCLDY    34  30  85 NW3       29.89R
* BEAVER HILL  N/A       42  33  71 S11        N/A
* CIRCLE       N/A       42  35  76 N/A        N/A
* LINDSAY DVD  N/A       44  31  60 W4         N/A
* NAVAJO       N/A       37  33  85 W11        N/A   WCI  29
* SACO         N/A       39  34  82 S6         N/A   WCI  35
$$

MTZ028>042-056>058-270400-
SOUTHCENTRAL AND SOUTHEAST MONTANA
CITY           SKY/WX    TMP DP  RH WIND       PRES   REMARKS
BAKER          CLEAR     37  30  76 CALM      29.94S
BILLINGS       CLEAR     54  27  35 SW23      30.00S
LIVINGSTON     CLEAR     55  27  34 W24G31    30.05S
MILES CITY     CLEAR     43  32  65 SE8       29.91F
* LAUREL APT   CLEAR     46  25  44 S11G16     N/A
* ROUNDUP APT  CLEAR     55  27  34 N/A        N/A
* ALZADA       N/A       46  31  56 W4         N/A
* HYSHAM       N/A       52  26  36 W5G10      N/A
* LAME DEER    N/A       56  27  33 W7         N/A
* REED POINT   N/A       38  32  79 W2         N/A
* ROSCOE HILL  N/A       60  14  16 SW3G19     N/A
$$

REGIONAL REPORTS...DAKOTAS
CITY           SKY/WX    TMP DP  RH WIND       PRES   REMARKS
WILLISTON      PTCLDY    34  30  85 CALM      29.89F
DICKINSON      PTCLDY    36  28  73 S7        29.90S WCI  30
CROSBY         CLEAR     32  32 100 S7        29.89F WCI  25
WATFORD CITY   CLEAR     32  28  85 CALM      29.88F
BISMARCK       PTCLDY    34  30  85 NE5       29.98S WCI  29
GRAND FORKS    PTCLDY    25  23  92 NE3       30.00R
FARGO          CLOUDY    30  27  89 N5        30.00R WCI  25
BUFFALO SD     CLEAR     52  34  50 W3        29.88F
RAPID CITY     CLEAR     37  27  67 CALM      29.99F
$$

REGIONAL REPORTS...WYOMING/IDAHO/WASHINGTON
CITY           SKY/WX    TMP DP  RH WIND       PRES   REMARKS
GILLETTE       CLEAR     50  28  43 SW21      30.03F
SHERIDAN       CLEAR     41  28  60 VRB3      30.01F
CODY           CLEAR     36  30  79 S5        30.13S WCI  32
YELLOWSTONE LA PTCLDY    21  18  88 CALM      30.33F
SALMON         CLOUDY   N/A N/A N/A CALM      30.23S VSB M1/4
MULLAN PASS    CLEAR     45  27  49 W9        30.08S
SAND POINT     FOG       32  32 100 CALM      30.04S VSB M1/4
SPOKANE        PTCLDY    39  37  93 CALM      29.99F

$$



USA.gov is the U.S. government's official web portal to all federal, state and local government web resources and services.